Location: Altamira
(10.5079°N, 66.8544°W)
Time: 15:02:03
(UTC+00:00)

Hubble Space Telescope - Pass Details

Date: 02 December 2023
Orbit: 516 x 519 km, 28.5° (Epoch: 23 February)

Event Time Altitude Azimuth Distance (km) Brightness Sun altitude
Rises 22:48:14 0° 321° (NW) 2,616 4.5 -11.1°
Reaches altitude 10° 22:51:44 10° 353° (N) 1,732 3.2 -11.9°
Maximum altitude 22:53:22 12° 17° (NNE) 1,600 2.8 -12.3°
Enters shadow 22:54:05 12° 28° (NNE) 1,627 2.8 -12.4°
